Volver al catálogo

STARLINK-33971

ActivoComunicacionesVLEO
NORAD 63932·PAYLOAD·🇺🇸 United States

Lanzado May 13, 2025 desde Vandenberg Space Force Base

Loading…

Próximos Pases (próximas 24 horas)

TLE

ActualizadoSource: CelesTrak SupGP

Época: Sep 14, 2026, 23:05 UTC

1 63932C 25098G   26257.96229167 -.00019364  00000+0 -67356-3 0  2572
2 63932  70.0001 155.7493 0003330 270.8503 356.0099 15.29590391    18

Sigue STARLINK-33971 en tiempo real con AllMySat

Download on the App Store